Regional Weather Roundup
Issued by NWS

Home | Current Version | Previous Version | Graphics & Text | Print | Product List | Glossary On
Versions: 1 2 3 4 5 6 7 8 9 10 11 12 13 14 15 16 17 18 19 20 21 22 23 24 25 26 27 28 29 30 31 32 33 34 35 36 37 38 39 40 41 42 43 44 45 46 47 48 49 50
341
ASUS43 KMKX 230211
RWRWI

WISCONSIN REGIONAL WEATHER ROUNDUP
NATIONAL WEATHER SERVICE MILWAUKEE/SULLIVAN WI
800 PM CST WED FEB 22 2017

NOTE: "FAIR" INDICATES FEW OR NO CLOUDS BELOW 12,000 FEET WITH NO
SIGNIFICANT WEATHER AND/OR OBSTRUCTIONS TO VISIBILITY.

WIZ001-002-006>008-014>016-023>028-230300-
NORTHWEST WISCONSIN

CITY           SKY/WX    TMP DP  RH WIND       PRES   REMARKS
SUPERIOR ARPT  LGT RAIN  37  35  95 N7        29.71R WCI  31
ASHLAND        CLOUDY    34  34 100 NE7       29.65F WCI  28
HAYWARD        LGT RAIN  38  34  85 NE8       29.59F WCI  32
SIREN          CLOUDY    41  34  76 N10       29.63R
CUMBERLAND     CLOUDY    41  41 100 NW5       29.58S
RICE LAKE      CLOUDY    44  42  95 CALM      29.59R
CHETEK         CLOUDY    44  43  97 W5        29.58R
LADYSMITH      MOCLDY    43  42  95 N5        29.58S
EAU CLAIRE     MOCLDY    43  38  82 CALM      29.55S
MENOMONIE      MOCLDY    47  41  78 W9        29.58R
NEW RICHMOND   CLOUDY    43  43  98 NW7       29.61R FOG
OSCEOLA        CLOUDY    46  41  84 NW10G17   29.64R
$$

WIZ003>005-009-010-017-018-230300-
NORTH CENTRAL WISCONSIN

CITY           SKY/WX    TMP DP  RH WIND       PRES   REMARKS
MANITOWISH WTR LGT RAIN  38  38 100 N7        29.60R WCI  33
ARBOR VITAE    CLOUDY    42  41  97 N5          N/A  FOG
WOODRUFF       CLOUDY    42  41  97 N5          N/A  FOG
RHINELANDER    PTCLDY    43  42  97 N5        29.55F
EAGLE RIVER    LGT RAIN  40  40 100 CALM      29.57F VSB 1/4
LAND O LAKES   LGT RAIN  40  40 100 CALM      29.59F
PHILLIPS       FOG       41  41 100 N6        29.56S VSB 1
TOMAHAWK       PTCLDY    40  38  93 CALM      29.55F
MEDFORD        CLEAR     39  37  93 CALM      29.54S
MERRILL        NOT AVBL
$$

WIZ029-030-035-036-043>047-230300-
CENTRAL WISCONSIN

CITY           SKY/WX    TMP DP  RH WIND       PRES   REMARKS
WAUSAU         PTCLDY    44  38  79 CALM      29.52F
MOSINEE        CLEAR     43  39  87 CALM      29.55S
MARSHFIELD     CLEAR     42  38  85 SW3       29.53S
STEVENS POINT  CLOUDY    39  35  86 CALM      29.55S
WAUPACA        CLEAR     51  38  59 W3        29.55R
WAUTOMA        CLEAR     42  37  82 CALM      29.55R
WISC RAPIDS    CLEAR     40  36  86 CALM      29.55F
CAMP DOUGLAS   PTCLDY    41  36  81 CALM      29.54F
$$

WIZ011>013-019>022-031-037>040-048>050-230300-
NORTHEAST WISCONSIN

CITY           SKY/WX    TMP DP  RH WIND       PRES   REMARKS
ANTIGO         MOCLDY    37  35  93 NE6       29.54F WCI  32
SHAWANO        MOCLDY    47  38  70 CALM      29.54S
OCONTO         MOCLDY    40  38  93 CALM      29.54S
STURGEON BAY   CLOUDY    40  39  97 E8        29.54F FOG     WCI  34
GREEN BAY      PTCLDY    45  42  89 NE5       29.53F
MANITOWOC      CLOUDY    43  40  89 CALM      29.55S
APPLETON       MOCLDY    52  39  62 VRB5      29.52F
CLINTONVILLE   MOCLDY    45  36  70 CALM      29.54R
OSHKOSH        PTCLDY    52  40  63 VRB3      29.53S
$$

WIZ032>034-041-042-053>061-230300-
SOUTHWEST WISCONSIN

CITY           SKY/WX    TMP DP  RH WIND       PRES   REMARKS
LA CROSSE      CLEAR     45  39  79 CALM      29.57R
SPARTA         CLEAR     40  36  86 CALM      29.57S
VIROQUA        CLEAR     49  41  73 W9        29.57R
BOSCOBEL       CLEAR     55  43  63 SW8       29.57R
PRAIRIE DU CHI CLEAR     51  42  69 CALM      29.59R
PLATTEVILLE    CLEAR     54  44  68 W7        29.58S
$$

WIZ056-057-062-063-064-067-068-230300-
SOUTH CENTRAL WISCONSIN

CITY           SKY/WX    TMP DP  RH WIND       PRES   REMARKS
REEDSBURG      CLEAR     50  43  78 NW3       29.55R
BARABOO/DELLS  CLEAR     54  41  62 CALM      29.55S
LONE ROCK      CLEAR     54  42  64 W7        29.56R
MINERAL POINT  CLEAR     55  43  62 SW6       29.57S
MADISON        CLEAR     57  50  77 S5        29.54S
MIDDLETON      CLEAR     60  51  72 SW7       29.54S
WATERTOWN      PTCLDY    58  53  84 S8        29.54S
MONROE         CLEAR     55  52  88 SW15      29.57S
JANESVILLE     CLEAR     59  52  77 S12       29.57S
$$

WIZ051-052-058>065-066-070>072-230300-
SOUTHEAST WISCONSIN

CITY           SKY/WX    TMP DP  RH WIND       PRES   REMARKS
MILWAUKEE      CLEAR     60  50  69 SW12      29.57S
WAUKESHA       PTCLDY    55  48  76 S10       29.58S
MILWAUKEE/TIMM CLEAR     59  48  67 SW12G17   29.56F
RACINE         CLEAR     60  52  74 SW14      29.58S
KENOSHA        CLEAR     61  53  75 SW14      29.58S
FOND DU LAC    MOCLDY    56  43  61 NE5       29.53S
SHEBOYGAN      CLEAR     44  41  89 NW3       29.53F
WEST BEND      CLEAR     59  52  77 SW13      29.54F
JUNEAU         PTCLDY    56  49  77 S9        29.55S
$$

LSZ147-162-230300-
LAKE SUPERIOR

STATION/POSITION TIME  TEMP    WIND        PRES    WAVE
                       AIR SEA DIR/SP/G            HT/PER
                 (UTC) (F)     (DEG/KT/KT) (MB)    (FT/S)
DEVILS ISLAND    0200   34     350/ 12/ 12 1006.0R
PORT WING        0130   34      30/  8/ 13 1005.4R
SAXON HARBOR     0140   34     320/  7/ 10 1004.4S
$$

LMZ867-665-643>646-230300-
LAKE MICHIGAN

STATION/POSITION TIME  TEMP    WIND        PRES    WAVE
                       AIR SEA DIR/SP/G            HT/PER
                 (UTC) (F)     (DEG/KT/KT) (MB)    (FT/S)
CHAMBERS ISLAND  0140   42      80/  4/  7 1000.7S
NORTHPORT PIER   0140   40     160/  2/  8 1001.7R
SISTER BAY       0135   40     150/  5/  7   N/A
KEWAUNEE LAKESHO 0130   39      30/  5/  6 1000.4R
SHEBOYGAN LAKESH 0200   48     200/  4/  6 1000.1F
PORT WASHINGTON  0140   60     220/  6/ 13 1001.7F
MILWAUKEE LAKESH 0150   61     220/ 14/ 17   N/A
KENOSHA   LAKESH 0200   63     210/ 12/ 18 1002.0
$$

TC  - TEMPERATURE IN CELSIUS
VSB - VISIBILITY IN STATUTE MILES
WCI - WIND CHILL INDEX
HX  - HEAT INDEX





USA.gov is the U.S. government's official web portal to all federal, state and local government web resources and services.